[[{"header":{"parameterUnit":"m.s-1","parameterCategory":1,"la1":30.2991,"la2":30.254,"lo1":-89.0895,"lo2":-89.0444,"dy":0.0017,"dx":0.0017,"nx":28,"ny":28,"refTime":"2024-11-22T03:00:00:Z","depth":0,"parameterNumber":2,"parameterNumberName":"U-component_of_WINDS"},"data":[0,0,0,0,0,0,0,0,0,0,0,0,0,0,0,0,0,0,0,0,0,0,0,0,0,0,0,0,0,0,0,0,0,0,0,0,0,0,0,0,0,0,0,0,0,0,0,0,0,0,0,0,0,0,0,0,0,0,4.5702,4.5703,0,4.5793,4.5794,4.5795,4.578,4.5779,4.5777,4.5776,4.5868,4.5872,4.5876,0,0,0,0,0,0,0,0,0,0,0,0,0,4.5515,4.5518,4.5701,4.5703,4.5704,4.5793,4.5794,4.5795,4.5781,4.5779,4.5777,4.5775,4.5867,4.5871,4.5876,0,0,0,0,0,0,0,0,0,0,0,0,0,4.56,4.5519,4.5701,4.5707,4.5709,4.5792,4.5794,4.5795,4.5781,4.5779,4.5776,4.5774,4.5865,4.5871,4.5877,4.596,0,0,4.5895,4.5897,0,0,0,0,0,0,0,0,4.5595,4.5607,4.5705,4.5707,4.5709,4.5773,4.5762,4.585,4.5782,4.5754,4.5776,4.5773,4.5838,4.5846,4.5868,4.5964,4.5968,4.5895,4.5899,4.5901,4.5903,0,0,0,0,0,0,0,4.5589,4.5603,4.5738,4.5707,4.5709,4.5705,4.5715,4.5779,4.5808,4.5756,4.5755,4.5766,4.5839,4.5863,4.587,4.5969,4.5895,4.59,4.5904,4.5906,4.6139,4.6142,0,0,0,0,0,0,4.5582,4.5598,4.5735,4.574,4.5645,4.5711,4.5721,4.5755,4.5807,4.5813,4.5768,4.5765,4.5854,4.5864,4.5874,4.5975,4.5901,4.5907,4.591,4.6137,4.614,4.6143,0,0,0,0,0,0,4.5578,4.5594,4.5731,4.5669,4.5686,4.5716,4.5754,4.5758,4.5782,4.5816,4.5821,4.5787,4.5852,4.5865,4.5939,4.5978,4.5909,4.5915,4.6133,4.6138,4.6141,4.6178,0,0,0,0,0,0,4.5572,4.5593,4.5624,4.567,4.569,4.5795,4.5756,4.5761,4.5792,4.5789,4.5836,4.5841,4.5852,4.593,4.5945,4.5985,4.5919,4.613,4.6135,4.614,4.6173,4.6183,4.6191,0,0,0,0,0,4.5566,4.563,4.5626,4.5643,4.573,4.5797,4.5808,4.5819,4.5795,4.5827,4.585,4.584,4.5972,4.5938,4.5954,4.5996,4.6128,4.6134,4.614,4.6169,4.6181,4.619,0,0,0,0,0,0,4.5588,4.5636,4.5632,4.5713,4.5751,4.5794,4.5835,4.5831,4.5876,4.5871,4.5883,4.5893,4.5968,4.599,4.5951,4.608,4.6046,4.6056,4.6063,4.6074,4.6083,4.6076,4.5924,0,0,0,0,0,4.5602,4.5653,4.5693,4.576,4.578,4.5805,4.5834,4.584,4.5879,4.5895,4.5923,4.5961,4.6012,4.6044,4.6092,4.6177,4.6187,4.6214,4.6223,4.623,4.6237,4.6285,4.6297,4.6162,4.6162,4.6162,0,0,4.5632,4.5665,4.5696,4.5766,4.5796,4.5848,4.5818,4.5874,4.5913,4.5903,4.5975,4.5997,4.6041,4.612,4.6157,4.614,4.6277,4.6237,4.6243,4.6247,4.6292,4.6305,4.6316,4.6167,4.6166,4.6165,0,0,4.5714,4.5744,4.5804,4.5835,4.5881,4.5898,4.5912,4.5957,4.5971,4.6043,4.6037,4.6084,4.617,4.6202,4.6229,4.6326,4.6318,4.6341,4.6386,4.6432,4.6442,4.6452,4.6486,4.6499,4.6349,4.6349,4.6349,0,4.5745,4.5824,4.5835,4.5893,4.5924,4.5919,4.598,4.601,4.6069,4.6091,4.6072,4.6181,4.621,4.6298,4.6322,4.6344,4.6361,4.6335,4.644,4.645,4.6459,4.6492,4.6505,4.6351,4.6351,4.6351,4.6351,0,4.586,4.5915,4.5958,4.6017,4.6053,4.6112,4.6133,4.6168,4.6171,4.619,4.6264,4.6299,4.6354,4.6376,4.6379,4.6464,4.6453,4.6437,4.6403,4.6474,4.6505,4.6518,4.6355,4.6354,4.6353,4.6353,0,0,4.5956,4.6022,4.6038,4.6065,4.6117,4.6159,4.6219,4.6274,4.6304,4.6346,4.6396,4.647,4.6457,4.6488,4.6495,4.6535,4.661,4.6514,4.6516,4.6531,4.6707,4.6718,4.6732,4.6605,4.6608,4.661,4.6703,0,4.6043,4.6148,4.6161,4.6255,4.6306,4.6303,4.6355,4.6392,4.6412,4.6458,4.6479,4.6532,4.6509,4.6528,4.6568,4.6592,4.6645,4.6586,4.6652,4.6654,4.6641,4.6749,4.6761,4.6847,4.6715,4.6717,4.6719,0,4.6157,4.6203,4.6302,4.6348,4.637,4.6417,4.6469,4.6513,4.6556,4.6568,4.6604,4.6606,4.6668,4.6632,4.6718,4.6677,4.6706,4.6722,4.6725,4.6731,4.669,4.6758,4.6875,4.6887,4.6738,4.6737,4.6735,0,4.6218,4.6305,4.6375,4.6398,4.6454,4.6487,4.6511,4.6552,4.6585,4.6631,4.6652,4.6705,4.6733,4.6774,4.679,4.6763,4.6876,4.6841,4.6887,4.6886,4.691,4.6908,4.7033,4.6929,4.6929,4.6928,4.6928,0,4.6313,4.6373,4.6403,4.6447,4.6515,4.653,4.6597,4.662,4.6657,4.6705,4.6706,4.6751,4.677,4.6818,4.6832,4.6901,4.6914,4.6925,4.6928,4.6925,4.6923,4.6943,4.6937,4.6932,4.6931,4.693,4.693,0,4.6391,4.6414,4.6491,4.6537,4.6551,4.6599,4.6639,4.6681,4.6701,4.6762,4.6777,4.6808,4.6865,4.6886,4.6955,4.6964,4.7044,4.7042,4.703,4.703,4.7075,4.707,4.7216,4.7236,4.7119,4.7121,4.7121,0,4.645,4.6497,4.6549,4.6582,4.6608,4.666,4.6694,4.6711,4.6746,4.68,4.6836,4.6893,4.6939,4.7031,4.7059,4.7113,4.7112,4.7159,4.7119,4.7115,4.7112,4.7109,4.7114,4.7166,4.7167,4.7168,4.7169,0,4.6552,4.6561,4.661,4.6664,4.6705,4.6748,4.6789,4.6816,4.6839,4.6879,4.6938,4.6974,4.7046,4.7102,4.7158,4.7183,4.718,4.7182,4.7195,4.7192,4.7183,4.7189,4.705,4.7178,4.7177,4.7176,4.7176,4.7175,4.6623,4.6664,4.6708,4.6763,4.6797,4.6836,4.6878,4.6904,4.6953,4.7013,4.702,4.7084,4.7127,4.7201,4.7229,4.7279,4.7266,4.7285,4.729,4.7294,4.7298,4.7176,4.7289,4.7289,4.7288,4.7288,4.7288,0,4.6725,4.6753,4.6804,4.6862,4.6906,4.6901,4.6947,4.6984,4.7039,4.708,4.7126,4.7195,4.725,4.7284,4.734,4.7373,4.7373,4.7387,4.7385,4.7391,4.7306,4.7289,4.7386,4.7386,4.7386,4.7386,4.7386,4.7386,4.6783,4.6854,4.6868,4.6956,4.6984,4.7047,4.7074,4.711,4.7143,4.7219,4.7265,4.7287,4.7325,4.7384,4.7435,4.7444,4.7464,4.7479,4.7487,4.7407,4.7396,4.7387,4.7371,4.7484,4.7484,4.7567,4.7568,4.7568]},{"header":{"parameterUnit":"m.s-1","parameterCategory":1,"la1":30.2991,"la2":30.254,"lo1":-89.0895,"lo2":-89.0444,"dy":0.0017,"dx":0.0017,"nx":28,"ny":28,"refTime":"2024-11-22T03:00:00:Z","depth":0,"parameterNumber":3,"parameterNumberName":"V-component_of_WINDS"},"data":[0,0,0,0,0,0,0,0,0,0,0,0,0,0,0,0,0,0,0,0,0,0,0,0,0,0,0,0,0,0,0,0,0,0,0,0,0,0,0,0,0,0,0,0,0,0,0,0,0,0,0,0,0,0,0,0,0,0,-4.8346,-4.8347,0,-4.8479,-4.848,-4.8482,-4.8481,-4.848,-4.8478,-4.8476,-4.861,-4.8615,-4.862,0,0,0,0,0,0,0,0,0,0,0,0,0,-4.8091,-4.8095,-4.8346,-4.8347,-4.8349,-4.8478,-4.848,-4.8482,-4.8482,-4.848,-4.8478,-4.8476,-4.8608,-4.8614,-4.8621,0,0,0,0,0,0,0,0,0,0,0,0,0,-4.821,-4.8097,-4.8345,-4.8365,-4.8368,-4.8478,-4.848,-4.8483,-4.8482,-4.848,-4.8477,-4.8475,-4.8606,-4.8614,-4.8622,-4.8721,0,0,-4.8645,-4.8649,0,0,0,0,0,0,0,0,-4.8203,-4.822,-4.836,-4.8363,-4.8367,-4.8461,-4.8439,-4.8562,-4.8483,-4.8439,-4.8476,-4.8473,-4.8562,-4.8574,-4.8604,-4.8727,-4.8733,-4.8646,-4.8651,-4.8654,-4.8656,0,0,0,0,0,0,0,-4.8195,-4.8214,-4.8398,-4.8362,-4.8366,-4.8366,-4.838,-4.8463,-4.8513,-4.8442,-4.8443,-4.8458,-4.8564,-4.8597,-4.8607,-4.8735,-4.8646,-4.8653,-4.8657,-4.866,-4.8948,-4.8951,0,0,0,0,0,0,-4.8183,-4.8207,-4.8394,-4.8402,-4.8277,-4.8373,-4.8389,-4.8433,-4.8512,-4.8522,-4.846,-4.8458,-4.8585,-4.8598,-4.8612,-4.8735,-4.8654,-4.8661,-4.8666,-4.8945,-4.8949,-4.8952,0,0,0,0,0,0,-4.8178,-4.82,-4.8389,-4.8305,-4.8329,-4.838,-4.843,-4.8437,-4.847,-4.8526,-4.8535,-4.8485,-4.8583,-4.8601,-4.8695,-4.8739,-4.8665,-4.8672,-4.8942,-4.8946,-4.8951,-4.898,0,0,0,0,0,0,-4.817,-4.8198,-4.8236,-4.8306,-4.8333,-4.8469,-4.8433,-4.8442,-4.8484,-4.8482,-4.8551,-4.856,-4.8583,-4.8683,-4.8702,-4.8749,-4.8678,-4.8938,-4.8944,-4.8949,-4.8975,-4.8985,-4.8994,0,0,0,0,0,-4.8161,-4.8239,-4.8238,-4.8261,-4.8383,-4.8472,-4.8488,-4.8512,-4.8487,-4.8527,-4.8563,-4.8558,-4.8731,-4.8693,-4.8714,-4.8764,-4.8935,-4.8942,-4.8949,-4.8971,-4.8983,-4.8993,0,0,0,0,0,0,-4.8172,-4.8248,-4.8248,-4.8351,-4.8405,-4.8472,-4.8522,-4.8524,-4.8585,-4.8581,-4.8608,-4.8624,-4.8717,-4.875,-4.8705,-4.8865,-4.883,-4.8842,-4.884,-4.8852,-4.8861,-4.8851,-4.8684,0,0,0,0,0,-4.8187,-4.8253,-4.8316,-4.84,-4.8427,-4.847,-4.851,-4.8524,-4.8581,-4.8604,-4.8647,-4.8702,-4.8769,-4.8812,-4.8877,-4.898,-4.8996,-4.9025,-4.9034,-4.9041,-4.9051,-4.9109,-4.9123,-4.8974,-4.8974,-4.8974,0,0,-4.8217,-4.8266,-4.8307,-4.8403,-4.8447,-4.8516,-4.8489,-4.8562,-4.8613,-4.8615,-4.8706,-4.874,-4.8803,-4.8902,-4.8948,-4.8932,-4.9095,-4.905,-4.9055,-4.9061,-4.9117,-4.9131,-4.9144,-4.8979,-4.8978,-4.8977,0,0,-4.8307,-4.8351,-4.8426,-4.8471,-4.8538,-4.8567,-4.8585,-4.8652,-4.8675,-4.8767,-4.877,-4.8831,-4.8945,-4.8991,-4.9029,-4.9138,-4.9136,-4.9158,-4.9205,-4.9261,-4.9273,-4.9284,-4.9323,-4.9337,-4.9167,-4.9167,-4.9167,0,-4.8335,-4.8439,-4.8465,-4.8539,-4.8582,-4.8587,-4.8664,-4.8706,-4.8791,-4.882,-4.8801,-4.8946,-4.8989,-4.91,-4.9127,-4.9157,-4.9179,-4.915,-4.9269,-4.928,-4.929,-4.9328,-4.9343,-4.917,-4.9169,-4.9169,-4.9169,0,-4.8471,-4.8543,-4.8596,-4.8679,-4.8728,-4.8803,-4.884,-4.8886,-4.8897,-4.8927,-4.9021,-4.9073,-4.9149,-4.9176,-4.9187,-4.9289,-4.9277,-4.9264,-4.9229,-4.9306,-4.9343,-4.9357,-4.9173,-4.9172,-4.9171,-4.9171,0,0,-4.857,-4.8668,-4.8687,-4.8725,-4.8801,-4.8857,-4.8932,-4.9007,-4.9047,-4.9105,-4.9169,-4.9267,-4.9256,-4.9299,-4.9315,-4.9364,-4.9448,-4.9345,-4.9347,-4.9363,-4.9565,-4.9575,-4.9591,-4.9448,-4.9451,-4.9453,-4.956,0,-4.8669,-4.8804,-4.883,-4.8947,-4.9014,-4.9022,-4.9088,-4.9141,-4.9172,-4.9233,-4.9266,-4.9335,-4.9315,-4.9341,-4.9391,-4.9428,-4.9489,-4.942,-4.9508,-4.9511,-4.9492,-4.961,-4.962,-4.9718,-4.9574,-4.9577,-4.9578,0,-4.8801,-4.8864,-4.8989,-4.9056,-4.9086,-4.9144,-4.9216,-4.9275,-4.9335,-4.9354,-4.9404,-4.9414,-4.9493,-4.9456,-4.9565,-4.9517,-4.9555,-4.9579,-4.9583,-4.9592,-4.9549,-4.9622,-4.975,-4.9765,-4.9601,-4.9599,-4.9597,0,-4.8862,-4.8978,-4.9068,-4.91,-4.9181,-4.9222,-4.9258,-4.9316,-4.9361,-4.9423,-4.9452,-4.9523,-4.9561,-4.9616,-4.9645,-4.9615,-4.9753,-4.9717,-4.977,-4.977,-4.9798,-4.9796,-4.9934,-4.9823,-4.9822,-4.9822,-4.9822,0,-4.8969,-4.9044,-4.9096,-4.9151,-4.9237,-4.9266,-4.935,-4.9385,-4.9437,-4.9499,-4.951,-4.9567,-4.9603,-4.9666,-4.969,-4.9777,-4.9794,-4.9811,-4.9817,-4.9811,-4.9809,-4.9835,-4.9829,-4.9826,-4.9825,-4.9824,-4.9824,0,-4.905,-4.9088,-4.9186,-4.9256,-4.9275,-4.9335,-4.9394,-4.9448,-4.9479,-4.9558,-4.9578,-4.9627,-4.9702,-4.9737,-4.9829,-4.9845,-4.9944,-4.9945,-4.9924,-4.9926,-4.9977,-4.9972,-5.0137,-5.0161,-5.0033,-5.0035,-5.0036,0,-4.9116,-4.9175,-4.9251,-4.9294,-4.9331,-4.94,-4.9445,-4.9477,-4.9524,-4.9599,-4.9644,-4.9719,-4.9781,-4.9901,-4.9944,-5.0015,-5.0018,-5.0071,-5.0028,-5.0021,-5.0019,-5.0015,-5.0021,-5.0078,-5.0079,-5.008,-5.0081,0,-4.9229,-4.9245,-4.9311,-4.9383,-4.9438,-4.9496,-4.9553,-4.9588,-4.9629,-4.9681,-4.9758,-4.9807,-4.9902,-4.9977,-5.0052,-5.0088,-5.0092,-5.0095,-5.0111,-5.0105,-5.0091,-5.0099,-4.9945,-5.009,-5.0089,-5.0089,-5.0088,-5.0088,-4.9305,-4.9358,-4.9421,-4.9494,-4.954,-4.9594,-4.9649,-4.9687,-4.9753,-4.9834,-4.9848,-4.9931,-4.9991,-5.0092,-5.0131,-5.0196,-5.0183,-5.0206,-5.0212,-5.0218,-5.0221,-5.0081,-5.0209,-5.0209,-5.0209,-5.0209,-5.0208,0,-4.9419,-4.946,-4.9527,-4.9608,-4.9665,-4.9665,-4.9729,-4.9777,-4.985,-4.9906,-4.9968,-5.0057,-5.0131,-5.0181,-5.0255,-5.0297,-5.0301,-5.0316,-5.0313,-5.0321,-5.0227,-5.0206,-5.0312,-5.0312,-5.0312,-5.0312,-5.0312,-5.0311,-4.9485,-4.9575,-4.9599,-4.9712,-4.9753,-4.9834,-4.9871,-4.9921,-4.9966,-5.0066,-5.0128,-5.016,-5.0214,-5.0293,-5.036,-5.0373,-5.04,-5.0415,-5.0428,-5.0339,-5.0328,-5.0317,-5.0298,-5.0421,-5.0421,-5.0516,-5.0517,-5.0518]}]]